Wind_Speed
16 18 19 19 24 35 37 35 43 44 41 40 40 47 50 50 47 43 46 52 30 30 31 26 27 21 23 22 22 21 16 20 18 20 19 20 24 23 21 18 17 18 17
12 12 16 20 22 27 34 37 36 44 44 41 39 44 49 49 46 42 45 42 38 27 29 27 26 27 27 28 26 23 18 18 20 19 20 17 18 18 20 15 18 18 19
6 8 12 20 24 24 33 37 39 42 46 46 40 43 49 48 45 40 43 48 39 31 20 28 25 27 22 22 30 24 19 19 20 18 14 15 16 17 13 12 18 19 23
6 0 7 16 22 27 35 38 39 45 46 44 41 43 49 47 42 40 44 48 39 23 21 24 25 22 23 24 21 22 22 18 15 13 7 7 9 9 13 19 21 17 9
2 2 6 14 21 26 31 34 39 46 45 42 43 44 47 46 39 38 44 45 34 18 15 21 25 19 14 18 19 23 19 18 14 11 10 10 8 12 15 18 11 10 10
3 6 9 12 22 25 29 33 39 45 42 42 42 46 45 46 36 33 45 49 33 22 20 22 17 16 15 21 22 25 23 17 12 13 14 12 12 15 11 9 11 12 15
8 9 12 16 21 25 28 33 37 37 38 39 43 45 43 42 36 34 45 43 39 22 26 24 21 10 13 14 25 22 12 8 11 8 10 14 15 11 9 11 15 15 17
10 9 12 16 20 26 29 28 33 35 38 40 43 43 41 38 36 36 40 39 24 24 23 24 14 17 21 21 16 9 4 4 8 9 14 15 8 11 13 13 15 15 13
13 10 11 16 22 25 29 31 34 35 37 42 42 39 39 38 37 41 38 43 33 29 23 18 15 19 16 22 20 16 9 11 11 13 12 11 10 14 15 14 14 11 9
16 9 11 17 23 26 28 32 35 35 38 42 42 40 30 37 40 35 38 27 31 29 23 20 18 18 16 18 18 19 15 15 15 11 10 13 11 14 13 10 9 7 6
17 16 10 14 20 26 27 32 36 37 38 38 38 35 45 43 41 33 33 28 29 32 21 21 25 19 19 16 13 13 13 13 14 14 14 11 12 11 7 8 6 5 7
17 14 12 14 17 21 27 33 37 38 37 41 42 38 44 41 30 30 26 32 28 36 28 23 20 21 20 16 15 13 11 10 10 11 11 9 7 5 6 7 8 10 13
19 17 13 16 18 19 25 30 35 38 40 40 41 43 30 39 23 31 33 27 28 29 23 25 23 23 22 18 15 10 9 7 2 4 5 6 6 8 9 11 12 13 16
18 18 21 20 22 22 27 30 33 37 44 38 48 34 40 37 30 33 32 23 26 22 21 23 18 20 20 19 14 9 8 5 5 7 7 7 10 11 13 14 14 18 18
15 15 18 16 20 28 24 29 33 36 27 36 21 31 35 37 32 33 29 21 20 18 22 24 19 18 18 15 10 11 9 7 9 10 10 11 12 14 14 16 16 19 21
17 15 17 20 25 22 28 26 29 26 23 22 28 33 26 34 38 36 28 28 23 24 27 24 20 16 13 12 11 10 8 11 11 11 12 14 15 15 13 16 21 26 28
18 18 19 22 24 26 23 20 24 27 29 21 30 33 27 20 25 24 25 25 21 19 17 15 12 13 14 14 12 11 9 10 11 13 15 15 16 16 18 24 28 30 30
22 21 25 24 20 16 17 14 21 19 27 27 18 16 16 26 27 25 23 20 18 18 16 16 16 15 14 14 10 11 12 12 13 16 18 18 18 21 26 30 30 31 34
23 26 30 25 24 25 31 22 24 23 16 26 27 24 21 22 25 24 20 18 17 17 16 16 15 13 14 15 14 11 11 13 14 18 18 19 22 27 29 30 33 37 40
18 22 24 25 26 27 25 22 17 19 18 13 17 21 16 23 21 17 19 19 18 16 14 13 13 16 16 14 15 14 14 16 18 20 22 26 28 30 34 36 39 42 44
19 19 19 22 21 21 26 30 27 24 23 21 20 20 20 21 21 22 19 18 16 15 14 16 15 12 13 13 14 14 16 18 22 25 28 30 32 35 38 41 42 44 46
15 19 20 21 22 21 21 20 20 22 22 22 22 21 20 20 19 17 14 13 12 10 10 7 8 11 14 15 15 17 21 24 27 30 33 33 37 40 41 42 45 48 51
17 18 20 21 21 20 20 20 20 20 19 18 16 15 15 14 13 12 10 9 8 9 10 11 12 12 14 17 20 24 27 28 29 31 35 40 42 43 47 50 51 54 56
17 16 16 15 15 15 13 13 15 16 16 15 16 16 15 15 13 10 9 10 11 11 12 12 14 17 20 23 26 27 29 30 35 39 41 45 50 49 50 54 56 57 60
13 12 11 10 9 9 9 8 8 8 8 8 9 9 8 8 10 12 12 12 11 11 15 17 19 23 25 27 28 31 35 38 41 44 47 46 51 55 60 61 65 63 62
8 8 7 6 5 4 4 5 6 8 9 10 9 9 8 9 9 9 10 11 14 17 20 21 23 25 27 29 33 37 42 44 47 46 52 55 54 59 65 64 67 71 74
Wind_Direction
284 258 245 229 214 203 205 204 206 201 198 199 204 203 206 208 212 213 207 203 205 191 196 196 218 201 212 238 229 221 214 224 219 233 235 241 250 253 269 267 274 275 282
287 256 223 208 202 205 203 199 197 197 198 196 200 201 204 205 209 209 209 207 202 194 197 202 204 202 224 236 236 217 213 221 214 228 235 247 238 256 267 274 278 280 278
326 241 223 211 205 206 197 196 193 191 192 194 196 198 202 204 205 206 205 197 198 199 199 202 205 213 225 237 233 217 215 213 230 230 221 239 248 253 270 281 279 280 285
351 274 200 198 199 197 189 190 189 187 188 191 192 196 201 203 206 206 202 204 200 185 211 200 202 215 240 234 229 212 207 205 207 214 229 256 242 253 278 280 283 282 271
30 102 152 178 184 179 184 186 184 185 185 189 191 194 199 199 203 204 199 205 189 184 181 196 209 229 231 220 208 198 202 199 205 229 237 233 258 281 275 278 269 262 284
155 122 135 161 176 178 178 180 179 181 184 188 189 192 192 195 200 202 196 202 190 212 193 201 221 227 224 200 205 211 204 202 214 217 238 253 267 264 269 264 270 286 289
123 142 146 150 164 170 168 169 173 180 184 184 185 187 185 190 196 198 196 205 208 205 181 187 197 249 194 210 218 213 217 201 214 224 247 246 255 265 260 276 287 285 291
99 128 143 152 156 166 169 170 170 173 174 177 179 180 178 183 190 195 191 197 191 184 183 177 194 184 178 185 208 220 163 199 246 246 246 250 255 265 275 282 282 287 289
82 101 148 159 160 164 168 168 169 169 171 173 174 175 176 185 186 188 181 196 188 183 168 164 181 184 188 194 212 220 254 248 253 247 248 249 249 269 276 274 277 285 292
64 92 129 159 163 164 167 167 167 168 169 172 173 168 174 181 181 176 182 196 186 169 168 170 164 184 185 199 206 233 252 249 247 245 239 251 268 270 265 275 275 283 305
65 78 116 142 163 171 172 172 173 174 174 171 171 167 180 172 180 185 192 199 199 189 169 176 174 187 190 212 203 231 221 244 252 253 256 262 271 260 258 263 275 295 291
69 81 110 132 143 154 168 173 177 180 178 173 171 179 178 188 166 178 183 178 182 182 167 165 175 186 196 212 216 222 237 252 261 251 251 254 233 245 266 281 286 289 281
75 74 111 129 131 143 154 161 169 171 170 166 175 175 173 179 172 171 178 172 164 165 172 186 187 194 198 210 226 225 234 255 234 242 201 210 234 250 260 273 279 281 290
80 82 112 124 133 142 147 152 155 158 163 161 168 181 167 177 175 160 163 153 166 173 184 190 193 206 208 212 213 225 229 258 245 237 226 234 243 254 268 275 281 292 294
96 102 101 119 146 147 147 152 153 152 162 167 158 143 170 172 156 166 166 166 180 189 197 205 214 216 213 218 219 221 228 217 219 227 238 251 261 271 274 285 295 301 301
81 110 114 125 126 131 143 144 160 152 160 163 162 134 137 149 158 167 176 180 179 198 210 212 209 201 206 214 217 212 207 225 233 248 260 271 278 281 288 297 301 306 309
87 93 121 135 137 128 134 147 154 153 167 162 116 119 112 122 154 165 171 181 192 189 186 172 185 205 212 217 207 208 222 243 261 272 278 279 278 278 289 300 303 307 311
79 91 113 143 154 154 155 152 148 163 146 179 159 164 125 153 166 182 166 166 175 180 189 191 191 190 190 201 214 225 232 244 266 273 273 281 287 295 299 300 303 303 302
90 91 98 133 125 124 143 142 143 159 163 161 159 163 183 167 163 154 158 169 176 180 181 179 175 191 208 211 218 234 247 257 271 285 292 298 301 302 302 301 302 302 302
103 98 92 85 105 136 141 144 144 163 160 167 171 156 142 166 159 164 166 162 164 171 177 184 190 207 218 226 232 249 268 285 286 291 302 306 304 303 302 303 304 303 302
109 101 99 105 106 102 114 118 128 134 138 134 135 146 149 154 158 163 166 168 175 180 191 202 210 222 245 259 267 278 286 285 292 298 302 302 302 302 302 303 303 303 302
112 113 114 111 112 115 122 121 122 126 129 131 136 138 148 156 163 169 168 165 183 194 214 227 247 253 264 273 283 292 291 294 296 299 297 299 300 302 299 300 302 301 301
114 111 110 114 119 124 127 129 133 135 140 143 145 151 157 160 162 169 181 187 205 222 234 250 265 277 286 291 295 294 294 293 297 298 300 301 299 300 301 302 302 301 300
113 110 109 110 115 120 123 129 138 147 153 155 156 160 168 177 181 188 206 223 232 245 255 267 286 295 293 293 294 293 294 301 304 303 302 300 300 300 302 301 299 297 298
115 114 113 114 120 126 134 141 147 155 160 165 167 168 177 192 206 217 227 237 250 270 286 293 292 291 292 293 295 298 297 298 297 298 302 305 304 303 303 304 302 301 302
115 112 113 115 120 137 152 164 174 184 188 187 194 203 217 230 240 253 268 279 282 278 273 280 292 299 303 301 296 295 296 298 300 304 302 303 303 302 303 301 299 298 301
Height
5692 5691 5692 5694 5697 5704 5713 5722 5732 5741 5750 5758 5767 5775 5784 5793 5800 5808 5816 5825 5830 5833 5837 5842 5846 5849 5851 5855 5858 5860 5863 5867 5867 5872 5873 5876 5877 5879 5880 5879 5878 5879 5879
5689 5688 5688 5691 5696 5701 5709 5716 5725 5736 5746 5754 5763 5771 5780 5789 5797 5805 5813 5818 5828 5831 5836 5840 5846 5849 5851 5853 5856 5857 5860 5863 5865 5869 5870 5872 5874 5876 5876 5875 5876 5877 5877
5687 5686 5687 5689 5693 5698 5704 5712 5721 5730 5740 5750 5760 5769 5777 5786 5795 5803 5810 5816 5825 5830 5834 5839 5842 5847 5848 5850 5851 5851 5856 5860 5865 5866 5868 5871 5871 5872 5872 5872 5874 5873 5873
5688 5686 5686 5687 5690 5695 5702 5710 5717 5727 5737 5747 5757 5767 5775 5784 5793 5800 5808 5814 5820 5825 5830 5833 5839 5843 5845 5845 5846 5848 5853 5859 5861 5864 5866 5868 5868 5868 5869 5871 5870 5869 5870
5689 5688 5687 5688 5691 5696 5702 5709 5716 5725 5735 5745 5755 5764 5774 5783 5790 5797 5805 5812 5817 5824 5828 5831 5837 5839 5839 5841 5844 5846 5851 5855 5858 5862 5865 5865 5865 5865 5866 5867 5867 5868 5867
5690 5690 5690 5690 5694 5698 5703 5709 5716 5726 5734 5743 5752 5761 5772 5781 5789 5795 5801 5810 5815 5822 5826 5831 5832 5833 5837 5838 5842 5844 5848 5852 5856 5859 5862 5862 5862 5863 5863 5864 5865 5864 5865
5691 5691 5692 5693 5697 5701 5706 5711 5719 5727 5736 5743 5750 5759 5770 5779 5787 5793 5799 5809 5816 5820 5823 5826 5829 5832 5835 5840 5840 5844 5848 5850 5854 5856 5858 5859 5859 5861 5861 5862 5863 5861 5861
5694 5694 5696 5697 5700 5704 5709 5715 5721 5728 5735 5742 5751 5761 5768 5776 5785 5792 5799 5809 5813 5819 5824 5826 5830 5834 5836 5839 5841 5845 5848 5850 5851 5853 5854 5855 5856 5860 5860 5859 5859 5859 5858
5698 5698 5698 5701 5703 5707 5712 5717 5724 5730 5737 5744 5751 5762 5770 5778 5784 5790 5799 5808 5812 5818 5821 5824 5829 5834 5837 5840 5842 5845 5846 5848 5849 5849 5851 5854 5854 5858 5856 5856 5856 5856 5856
5702 5701 5701 5703 5705 5709 5714 5719 5726 5732 5738 5744 5753 5762 5771 5779 5784 5792 5799 5806 5811 5817 5820 5825 5829 5833 5836 5840 5842 5843 5844 5845 5846 5849 5850 5853 5853 5854 5854 5854 5855 5855 5854
5707 5705 5705 5705 5708 5711 5716 5722 5728 5734 5740 5747 5757 5763 5771 5776 5782 5793 5799 5804 5809 5813 5819 5825 5830 5833 5836 5842 5840 5840 5841 5846 5847 5848 5850 5850 5851 5851 5852 5854 5853 5852 5851
5712 5710 5708 5709 5710 5713 5717 5722 5728 5734 5743 5750 5758 5763 5771 5776 5784 5792 5798 5804 5809 5814 5820 5825 5829 5833 5837 5837 5838 5841 5842 5844 5845 5845 5846 5848 5850 5851 5851 5851 5851 5850 5850
5717 5716 5714 5715 5716 5718 5721 5725 5729 5737 5745 5753 5759 5768 5773 5779 5783 5793 5800 5805 5809 5815 5820 5825 5828 5832 5834 5836 5837 5839 5842 5844 5843 5845 5846 5847 5847 5849 5848 5849 5848 5848 5846
5724 5721 5721 5722 5724 5726 5728 5733 5738 5744 5751 5753 5763 5770 5774 5779 5786 5795 5800 5807 5812 5816 5821 5823 5827 5831 5832 5836 5838 5840 5841 5841 5843 5846 5845 5846 5846 5846 5846 5846 5845 5843 5842
5729 5728 5727 5729 5731 5733 5736 5740 5744 5750 5756 5759 5764 5770 5777 5780 5788 5797 5802 5808 5812 5817 5819 5821 5826 5828 5831 5835 5837 5840 5841 5841 5843 5844 5844 5845 5844 5844 5842 5841 5840 5839 5838
5732 5733 5733 5734 5735 5739 5742 5747 5752 5756 5758 5761 5766 5771 5776 5782 5790 5797 5804 5808 5812 5814 5817 5820 5824 5828 5832 5835 5837 5838 5839 5842 5841 5841 5842 5842 5841 5840 5837 5836 5836 5834 5831
5738 5737 5738 5739 5740 5743 5748 5750 5757 5761 5766 5768 5770 5774 5781 5788 5796 5801 5804 5809 5812 5816 5819 5822 5825 5829 5830 5834 5835 5836 5837 5838 5839 5840 5838 5838 5837 5835 5833 5832 5830 5826 5822
5743 5742 5742 5745 5747 5749 5753 5758 5761 5765 5769 5774 5778 5784 5789 5795 5798 5802 5805 5809 5812 5816 5821 5823 5825 5828 5830 5834 5834 5834 5833 5835 5836 5837 5836 5833 5832 5829 5826 5824 5820 5816 5813
5751 5749 5749 5750 5753 5754 5758 5763 5767 5770 5773 5777 5781 5785 5789 5795 5800 5803 5806 5811 5815 5818 5821 5822 5823 5827 5832 5833 5831 5832 5831 5832 5833 5834 5831 5827 5824 5821 5818 5815 5811 5808 5804
5757 5757 5757 5757 5757 5761 5765 5768 5771 5774 5777 5780 5785 5789 5793 5796 5800 5804 5808 5811 5814 5818 5820 5822 5824 5831 5832 5831 5829 5829 5828 5827 5827 5826 5823 5819 5816 5813 5810 5807 5803 5798 5793
5762 5763 5763 5764 5765 5767 5769 5772 5777 5781 5783 5786 5789 5794 5797 5801 5805 5808 5811 5813 5817 5819 5823 5827 5827 5825 5827 5827 5826 5824 5821 5822 5821 5818 5814 5811 5808 5805 5802 5797 5793 5788 5783
5767 5768 5769 5770 5772 5775 5777 5779 5781 5783 5788 5791 5793 5796 5800 5804 5808 5811 5813 5813 5817 5818 5819 5820 5822 5822 5823 5821 5819 5817 5818 5816 5814 5810 5805 5804 5801 5796 5792 5789 5783 5776 5771
5772 5774 5775 5777 5779 5781 5783 5784 5787 5789 5792 5794 5797 5800 5804 5807 5809 5810 5813 5813 5815 5818 5819 5819 5819 5818 5817 5815 5813 5813 5812 5809 5806 5803 5800 5795 5790 5788 5781 5776 5772 5765 5759
5777 5779 5780 5782 5784 5785 5787 5789 5791 5795 5797 5800 5802 5805 5808 5810 5811 5812 5814 5815 5814 5814 5813 5814 5813 5812 5811 5810 5809 5807 5805 5802 5799 5794 5790 5786 5779 5776 5772 5764 5758 5751 5744
5781 5782 5783 5785 5786 5788 5790 5791 5793 5795 5797 5799 5802 5804 5806 5808 5809 5811 5811 5810 5809 5809 5809 5808 5808 5808 5806 5804 5802 5799 5796 5792 5788 5784 5778 5776 5769 5761 5754 5751 5742 5738 5730
5782 5783 5785 5786 5788 5790 5791 5793 5794 5796 5798 5800 5801 5802 5804 5804 5805 5805 5804 5804 5805 5806 5805 5804 5803 5801 5799 5797 5793 5790 5786 5782 5777 5774 5766 5761 5758 5750 5741 5735 5725 5718 5713